AOBA VELOX-IV (43940 NORAD) Tracking and Keplerian Element Data
This shows tracking and keplerian element data for the satellite.
Feedback or suggestion? Click here.
Element | Value |
Catalog | 43940 |
Name | AOBA VELOX-IV |
Epoch Orbit | 515 |
Epoch Day | 51.92169656 |
Epoch Year | 2019 |
RAAN | 113.2537 |
Inclination | 97.2932 |
Eccentricity | 0.0026212 |
Argument of Perigee | 124.708 |
Mean Anonmoly | 321.1196 |
Mean Motion | 15.23350362 |
Decay Rate | 1.445E-05 |
L1 | 1 43940U 19003J 19051.92169656 .00001445 00000-0 63189-4 0 9998 |
L2 | 2 43940 97.2932 113.2537 0026212 124.7080 321.1196 15.23350362 5155 |
Live tracking and technical data element details for AOBA VELOX-IV (NORAD 43940). AOBA VELOX-IV can be tracked NOW for your location showing map with azimuth and elevation plus other details from your city location.
Track the satellite on the map from your city or location and see movement details for azimuth, elevation, latitude, longitude, range, height, and movement on the map or in text.
IsCatalogInMostPopularTable: catalog: 43940, numindb: 15
Update: records affected: 1
GetName: 43940 AOBA VELOX-IV
Hit Count: updated at: Thu, 21 Feb 2019 12:22:43 GMT